Location: *
(44.1392°N, 4.8079°E)
Time: 07:42:50
(UTC+00:00)

SL-16 R/B - Pass Details

Date: 21 June 2021
Orbit: 985 x 1007 km, 99.5° (Epoch: 31 July)

Event Time Altitude Azimuth Distance (km) Brightness Sun altitude
Exits shadow 03:16:11 - 240° (WSW) 3,007 4.4 -6.6°
Reaches altitude 10° 03:17:46 10° 253° (WSW) 2,756 4.3 -6.4°
Maximum altitude 03:19:55 12° 273° (W) 2,621 4.3 -6.1°
Drops below altitude 10° 03:22:05 10° 294° (WNW) 2,757 4.6 -5.8°
Sets 03:26:36 0° 325° (NW) 3,709 5.6 -5.2°
